GAOFEN-5 01

Last updated on Thu Jul 03 2025 00:02:30 GMT+0000 (Coordinated Universal Time)

1 43461U 18043A 25183.50100559 .00000316 00000+0 75768-4 0 9994 2 43461 98.4064 143.9008 0003036 84.9482 275.2064 14.60178932380652
UTC large
Height (km)
Speed (km/s)
/
Latitude / Longitude
Inclination (degrees)
Orbital Period (minutes)
Azimuth
Elevation
Range (km)
Doppler Factor

Next 0 passes for location: London (51.5072 / 0.1276)

Sorry there are no passes over London.